User: anonymous   Login
Location: Unspecified
(0.0000°N, 0.0000°E)
Time: 08:30:16
(UTC+00:00)
Language:

Kyokko - Orbit

View from above orbital plane
View from above orbital plane
View from above satellite
View from above satellite

Ground track
Ground track

The orbit data is extracted from the following two-line orbital elements,

1 10664U 78014A   19345.63227935 -.00000094 +00000-0 -63722-4 0  9995
2 10664 065.3736 319.3324 1910271 232.4226 108.7694 10.75489386626859
Epoch (UTC): 11 December 2019 15:10:28
Eccentricity: 0.1910271
inclination: 65.3736°
perigee height: 635 km
apogee height: 3947 km
right ascension of ascending node: 319.3324°
argument of perigee: 232.4226°
revolutions per day: 10.75489386
mean anomaly at epoch: 108.7694°
orbit number at epoch: 62685

The dashed part of the orbit path shows where the satellite is in the earth's shadow,  

DLR